Weather History for Decatur, AL

Change the Weather History Date:

Saturday, November 16, 2013

  Actual Average Record
Temperature  
Mean Temperature 57 °F -  
Max Temperature 64 °F 62 °F 80 °F (1958)
Min Temperature 50 °F 37 °F 23 °F (1967)
Degree Days  
Heating Degree Days 8    
Growing Degree Days 7 (Base 50)    
Moisture  
Dew Point 55 °F    
Average Humidity 86    
Maximum Humidity 100    
Minimum Humidity 78    
Precipitation  
Precipitation 0.01 in - - ()
Sea Level Pressure  
Sea Level Pressure 30.09 in    
Wind  
Wind Speed 7 mph (SE)    
Max Wind Speed 16 mph    
Max Gust Speed -    
Visibility 6 miles    
Events Rain    
Averages and records for this station are not official NWS values.
T = Trace of Precipitation, MM = Missing Value Source: NWS Daily Summary

Daily Weather History Graph

Daily Weather History Graph

Search for Another Location

Airport:

Trip Planner

Search our weather history database for the weather conditions in past years. The results will help you decide how hot, cold, wet, or windy it might be!

Date:

Astronomy

Nov. 16, 2013 Rise Set
Actual Time 6:22 AM CST 4:42 PM CST
Civil Twilight 5:55 AM CST 5:08 PM CST
Nautical Twilight 5:25 AM CST 5:39 PM CST
Astronomical Twilight 4:55 AM CST 6:09 PM CST
Moon 4:15 PM CST (11/16) 5:20 AM CST (11/16)
Length of Visible Light 11h 13m
Length of Day
10h 19m
Waxing Gibbous, 99% of the Moon is Illuminated
Nov 16
Waxing Gibbous
Nov 17
Full
Nov 25
Last Quarter
Dec 2
New
Dec 9
First Quarter

Hourly Weather History & Observations

Time (CST) Temp. Dew Point Humidity Pressure Visibility Wind Dir Wind Speed Gust Speed Precip Events Conditions
12:23 AM 50.0 °F 50.0 °F 100% 30.13 in 2.5 mi East 4.6 mph - N/A   Overcast
12:53 AM 50.0 °F 50.0 °F 100% 30.12 in 2.5 mi East 4.6 mph - N/A   Overcast
1:53 AM 51.1 °F 50.0 °F 96% 30.11 in 3.0 mi ESE 4.6 mph - N/A   Overcast
2:53 AM 53.1 °F 51.1 °F 93% 30.11 in 3.0 mi ESE 3.5 mph - N/A   Overcast
3:53 AM 53.1 °F 51.1 °F 93% 30.12 in 3.0 mi East 5.8 mph - N/A   Overcast
4:08 AM 53.6 °F 51.8 °F 94% 30.12 in 2.5 mi East 4.6 mph - N/A   Overcast
4:50 AM 53.6 °F 51.8 °F 94% 30.12 in 3.0 mi ESE 4.6 mph - N/A   Overcast
4:53 AM 54.0 °F 52.0 °F 93% 30.12 in 3.0 mi ESE 4.6 mph - N/A   Overcast
5:53 AM 54.0 °F 52.0 °F 93% 30.13 in 3.0 mi ESE 5.8 mph - N/A   Overcast
6:53 AM 54.0 °F 52.0 °F 93% 30.14 in 3.0 mi ESE 5.8 mph - N/A   Overcast
7:09 AM 55.4 °F 51.8 °F 88% 30.14 in 3.0 mi SE 6.9 mph - N/A   Overcast
7:53 AM 55.9 °F 53.1 °F 90% 30.14 in 4.0 mi SE 8.1 mph - N/A   Overcast
8:53 AM 57.9 °F 54.0 °F 87% 30.14 in 5.0 mi ESE 6.9 mph - N/A   Overcast
9:21 AM 59.0 °F 55.4 °F 88% 30.14 in 5.0 mi SE 9.2 mph - N/A   Overcast
9:53 AM 60.1 °F 55.0 °F 83% 30.14 in 6.0 mi SE 9.2 mph - N/A   Haze
10:36 AM 60.8 °F 57.2 °F 88% 30.14 in 2.5 mi South 9.2 mph - 0.01 in Rain Rain
10:41 AM 60.8 °F 57.2 °F 88% 30.14 in 3.0 mi SSE 9.2 mph - 0.01 in Rain Light Rain
10:53 AM 62.1 °F 57.9 °F 86% 30.13 in 5.0 mi SSE 10.4 mph - 0.01 in Rain Light Rain
11:10 AM 62.6 °F 57.2 °F 82% 30.12 in 6.0 mi SSE 10.4 mph - 0.00 in   Overcast
11:31 AM 62.6 °F 57.2 °F 82% 30.11 in 7.0 mi SE 10.4 mph - 0.00 in   Overcast
11:53 AM 62.1 °F 57.0 °F 84% 30.09 in 7.0 mi SSE 8.1 mph - 0.00 in   Overcast
12:08 PM 62.6 °F 57.2 °F 82% 30.08 in 7.0 mi SSE 8.1 mph - N/A   Overcast
12:53 PM 64.0 °F 57.0 °F 78% 30.06 in 8.0 mi SE 6.9 mph - N/A   Overcast
1:53 PM 64.9 °F 57.9 °F 78% 30.04 in 9.0 mi SE 6.9 mph - N/A   Overcast
2:53 PM 64.9 °F 59.0 °F 81% 30.03 in 10.0 mi SE 10.4 mph - N/A   Overcast
3:53 PM 64.9 °F 57.9 °F 78% 30.04 in 9.0 mi SSE 10.4 mph - N/A   Overcast
4:53 PM 64.0 °F 57.9 °F 80% 30.04 in 10.0 mi SE 10.4 mph - N/A   Overcast
5:53 PM 63.0 °F 57.9 °F 84% 30.05 in 10.0 mi SE 11.5 mph - N/A   Overcast
6:53 PM 63.0 °F 57.0 °F 81% 30.06 in 10.0 mi SE 9.2 mph - N/A   Overcast
7:16 PM 62.6 °F 57.2 °F 82% 30.06 in 10.0 mi SSE 15.0 mph - N/A   Overcast
7:35 PM 62.6 °F 57.2 °F 82% 30.07 in 10.0 mi SE 12.7 mph - N/A   Overcast
7:53 PM 63.0 °F 57.0 °F 81% 30.06 in 10.0 mi SE 16.1 mph - N/A   Overcast
8:53 PM 63.0 °F 57.0 °F 81% 30.06 in 10.0 mi SSE 12.7 mph - N/A   Overcast
9:35 PM 62.6 °F 57.2 °F 82% 30.06 in 9.0 mi SSE 15.0 mph - N/A   Overcast
9:45 PM 62.6 °F 57.2 °F 82% 30.06 in 9.0 mi SSE 10.4 mph - N/A   Overcast
9:53 PM 62.1 °F 57.0 °F 84% 30.05 in 10.0 mi SSE 11.5 mph - N/A   Overcast
10:03 PM 62.6 °F 57.2 °F 82% 30.06 in 10.0 mi SSE 12.7 mph - N/A   Overcast
10:53 PM 62.1 °F 55.9 °F 80% 30.03 in 10.0 mi SSE 11.5 mph - N/A   Overcast
11:53 PM 63.0 °F 57.0 °F 81% 30.02 in 10.0 mi SSE 12.7 mph - N/A   Overcast